GFSNGP_sfc_vis_045.txt.gz
Visibility
15.0 15.0 15.0 15.0 15.0 15.0 15.0 15.0 15.0 15.0 15.0 15.0 15.0 15.0 15.0 15.0 15.0 15.0 15.0 15.0 15.0 15.0 15.0 15.0 15.0 15.0 15.0 15.0 15.0 14.3 11.8 15.0 15.0 15.0 15.0 15.0 15.0 15.0 15.0 15.0 15.0 15.0 15.0 15.0
15.0 15.0 15.0 15.0 15.0 15.0 15.0 15.0 15.0 15.0 15.0 15.0 15.0 15.0 15.0 15.0 15.0 15.0 15.0 15.0 15.0 15.0 15.0 15.0 15.0 15.0 15.0 15.0 15.0 15.0 15.0 4.6 15.0 15.0 15.0 15.0 15.0 15.0 15.0 15.0 15.0 15.0 15.0 15.0
15.0 15.0 15.0 15.0 15.0 15.0 15.0 15.0 15.0 15.0 15.0 15.0 15.0 15.0 15.0 15.0 15.0 15.0 15.0 15.0 15.0 15.0 15.0 15.0 15.0 15.0 15.0 15.0 15.0 15.0 15.0 15.0 15.0 15.0 15.0 15.0 15.0 15.0 15.0 15.0 15.0 15.0 15.0 15.0
15.0 15.0 8.0 15.0 15.0 15.0 15.0 15.0 15.0 15.0 15.0 15.0 15.0 15.0 15.0 15.0 15.0 15.0 15.0 15.0 15.0 15.0 15.0 15.0 15.0 15.0 15.0 15.0 15.0 15.0 15.0 15.0 15.0 15.0 15.0 15.0 15.0 15.0 15.0 15.0 15.0 15.0 15.0 15.0
15.0 15.0 15.0 15.0 15.0 15.0 15.0 15.0 15.0 15.0 15.0 15.0 15.0 15.0 15.0 15.0 15.0 15.0 15.0 15.0 15.0 15.0 15.0 15.0 15.0 15.0 7.7 15.0 15.0 15.0 15.0 15.0 15.0 13.2 15.0 15.0 15.0 15.0 15.0 15.0 15.0 15.0 15.0 15.0
6.3 15.0 15.0 15.0 15.0 15.0 15.0 15.0 15.0 15.0 15.0 15.0 15.0 15.0 15.0 15.0 15.0 15.0 15.0 15.0 15.0 15.0 15.0 15.0 15.0 15.0 15.0 15.0 15.0 15.0 10.1 15.0 15.0 15.0 15.0 15.0 15.0 15.0 15.0 15.0 15.0 15.0 15.0 15.0
10.3 0.6 15.0 15.0 15.0 15.0 15.0 15.0 15.0 15.0 15.0 15.0 15.0 15.0 15.0 15.0 15.0 15.0 15.0 15.0 15.0 15.0 15.0 15.0 15.0 15.0 15.0 15.0 15.0 15.0 15.0 15.0 15.0 15.0 15.0 15.0 15.0 15.0 15.0 15.0 15.0 15.0 15.0 15.0
9.2 5.8 14.6 15.0 15.0 15.0 15.0 15.0 15.0 15.0 15.0 15.0 15.0 15.0 15.0 15.0 15.0 15.0 15.0 15.0 15.0 15.0 15.0 15.0 15.0 15.0 15.0 15.0 15.0 15.0 15.0 15.0 15.0 15.0 15.0 15.0 15.0 15.0 15.0 15.0 15.0 15.0 15.0 15.0
0.2 8.7 15.0 15.0 14.8 15.0 15.0 15.0 15.0 15.0 15.0 15.0 15.0 15.0 15.0 15.0 15.0 15.0 15.0 15.0 15.0 15.0 15.0 15.0 15.0 15.0 15.0 15.0 15.0 15.0 15.0 15.0 15.0 15.0 15.0 15.0 15.0 15.0 15.0 15.0 15.0 15.0 15.0 15.0
15.0 15.0 15.0 15.0 15.0 15.0 15.0 15.0 15.0 14.4 15.0 13.8 15.0 15.0 15.0 15.0 15.0 15.0 15.0 15.0 15.0 15.0 15.0 15.0 15.0 15.0 15.0 15.0 15.0 15.0 15.0 15.0 15.0 15.0 15.0 15.0 15.0 15.0 15.0 15.0 15.0 15.0 15.0 15.0
15.0 15.0 15.0 15.0 15.0 15.0 15.0 15.0 15.0 15.0 15.0 11.4 15.0 15.0 15.0 15.0 15.0 15.0 15.0 15.0 15.0 15.0 15.0 15.0 15.0 15.0 15.0 15.0 15.0 15.0 15.0 15.0 15.0 15.0 15.0 15.0 15.0 15.0 15.0 15.0 15.0 15.0 15.0 15.0
15.0 15.0 15.0 15.0 15.0 15.0 15.0 15.0 15.0 15.0 15.0 15.0 15.0 15.0 15.0 15.0 15.0 15.0 15.0 15.0 15.0 15.0 15.0 15.0 15.0 15.0 15.0 15.0 15.0 15.0 15.0 15.0 15.0 15.0 15.0 15.0 15.0 15.0 15.0 15.0 15.0 15.0 15.0 15.0
15.0 15.0 15.0 15.0 15.0 15.0 15.0 15.0 15.0 15.0 15.0 15.0 15.0 15.0 15.0 15.0 15.0 15.0 15.0 15.0 15.0 15.0 15.0 15.0 15.0 15.0 15.0 15.0 15.0 15.0 15.0 15.0 15.0 15.0 15.0 15.0 15.0 15.0 15.0 15.0 14.7 14.7 15.0 15.0
15.0 15.0 15.0 15.0 15.0 15.0 15.0 15.0 15.0 15.0 15.0 15.0 15.0 15.0 15.0 15.0 15.0 15.0 15.0 15.0 15.0 15.0 15.0 15.0 15.0 15.0 15.0 15.0 15.0 15.0 15.0 15.0 15.0 15.0 15.0 15.0 15.0 15.0 15.0 13.6 8.5 15.0 15.0 15.0
15.0 15.0 15.0 15.0 15.0 15.0 15.0 15.0 15.0 15.0 15.0 15.0 15.0 15.0 15.0 15.0 15.0 15.0 15.0 15.0 15.0 15.0 15.0 15.0 15.0 15.0 15.0 15.0 15.0 15.0 15.0 15.0 15.0 15.0 6.3 8.9 12.8 4.6 3.9 15.0 15.0 15.0 15.0 15.0
15.0 15.0 15.0 15.0 15.0 15.0 15.0 15.0 15.0 15.0 15.0 15.0 15.0 15.0 15.0 15.0 15.0 15.0 15.0 15.0 15.0 15.0 15.0 15.0 15.0 15.0 15.0 15.0 15.0 15.0 14.4 7.8 1.8 0.8 0.7 1.1 1.9 4.8 12.7 15.0 15.0 15.0 15.0 15.0
8.6 0.1 13.7 14.4 15.0 15.0 15.0 15.0 15.0 15.0 15.0 15.0 15.0 15.0 15.0 15.0 15.0 15.0 15.0 15.0 14.8 11.2 2.3 7.3 1.3 0.6 0.6 0.7 1.0 0.4 0.1 0.1 0.2 0.4 1.2 2.5 2.6 3.2 6.9 6.6 5.6 14.6 15.0 15.0
0.1 2.9 15.0 15.0 5.2 0.2 0.2 1.2 13.6 14.4 12.4 15.0 15.0 15.0 15.0 13.1 2.2 0.2 0.1 0.1 0.1 0.1 0.1 0.1 0.1 0.1 0.1 0.1 0.1 0.1 0.1 0.1 0.2 0.3 1.0 0.5 0.4 6.3 14.5 7.4 13.1 15.0 15.0 15.0
2.5 1.8 6.6 12.5 15.0 15.0 10.5 2.2 0.4 0.5 0.4 0.4 1.1 0.1 0.1 0.1 0.1 0.1 0.1 0.1 0.1 0.1 0.1 0.1 0.1 0.1 0.1 0.1 0.1 0.1 0.1 0.1 0.1 0.1 0.1 0.2 0.3 0.2 0.4 1.5 13.2 15.0 15.0 15.0
0.1 0.6 2.6 0.7 0.9 1.2 0.2 0.1 0.3 0.3 0.1 0.1 0.1 0.1 0.1 0.1 0.1 0.1 0.2 0.1 0.1 0.1 0.1 0.1 0.1 0.1 0.1 0.1 0.1 0.1 0.1 0.1 0.2 0.1 0.1 0.1 0.2 0.2 4.0 15.0 3.0 0.9 0.9 0.9
0.1 0.1 0.1 0.2 0.1 0.1 0.1 0.1 0.3 0.1 0.1 0.1 0.4 0.1 0.1 0.1 0.1 0.1 0.2 0.3 0.1 0.1 0.1 0.1 0.1 0.1 0.2 0.2 0.2 0.1 0.1 0.1 0.1 0.2 0.4 0.6 0.4 0.4 0.9 2.2 0.8 0.4 0.4 1.4
0.2 0.3 0.2 0.8 1.6 0.2 0.1 0.1 0.2 0.1 0.1 0.1 0.1 0.1 0.2 0.1 0.2 0.2 0.1 0.2 0.1 0.1 0.1 0.1 0.1 0.1 0.1 0.1 1.5 5.1 3.7 15.0 15.0 10.0 3.0 3.4 4.7 2.7 2.1 3.2 3.5 2.4 11.3 15.0
0.1 0.1 0.2 0.5 0.4 0.1 1.0 0.9 0.5 3.5 1.1 0.5 0.2 0.2 0.1 0.1 0.1 0.3 0.1 0.1 0.1 0.1 0.7 5.8 14.6 15.0 12.9 4.1 10.7 15.0 15.0 14.5 4.7 2.6 1.0 8.8 9.1 0.8 0.5 0.5 0.3 0.8 2.4 0.8
0.1 0.1 0.1 0.1 6.1 12.8 0.4 0.7 4.2 3.7 4.2 3.2 0.5 0.4 1.5 0.8 0.2 0.2 0.2 0.4 7.7 15.0 15.0 15.0 15.0 15.0 6.9 2.3 2.3 15.0 15.0 11.3 3.5 12.0 15.0 13.0 4.3 2.1 2.0 1.2 0.9 0.5 0.3 1.3
2.0 5.8 11.9 4.1 1.5 0.3 5.6 3.9 1.4 13.3 15.0 13.5 14.1 6.9 13.0 15.0 4.1 2.2 15.0 5.6 4.9 12.4 11.9 13.0 15.0 15.0 15.0 15.0 15.0 15.0 4.1 3.0 0.3 0.2 0.4 1.1 1.8 4.3 7.1 4.3 0.6 0.4 0.3 0.5
15.0 15.0 15.0 15.0 15.0 15.0 13.7 15.0 5.6 0.6 0.8 0.7 0.3 0.5 1.2 3.9 1.5 0.2 6.4 6.8 2.2 9.8 7.9 2.2 2.7 2.2 3.3 14.7 1.7 0.6 3.2 4.5 1.8 3.2 3.0 3.6 4.5 5.8 6.9 2.4 0.9 1.0 1.8 5.7
15.0 15.0 15.0 15.0 5.7 7.0 15.0 15.0 11.2 2.5 7.7 1.8 0.3 1.4 5.2 13.1 15.0 8.7 6.9 3.9 15.0 15.0 15.0 12.7 6.5 3.2 15.0 14.7 12.4 4.5 12.4 14.9 3.2 0.4 1.4 13.5 5.6 1.9 1.2 2.9 5.0 12.0 4.7 4.1

GFSNGP_sfc_vis_048.txt.gz
Visibility
15.0 15.0 15.0 15.0 15.0 15.0 15.0 15.0 15.0 15.0 15.0 15.0 15.0 15.0 15.0 15.0 15.0 15.0 15.0 15.0 15.0 15.0 15.0 15.0 15.0 15.0 15.0 15.0 15.0 15.0 15.0 15.0 9.5 5.1 15.0 15.0 15.0 15.0 15.0 15.0 15.0 15.0 15.0 13.7
15.0 15.0 15.0 15.0 15.0 15.0 15.0 15.0 15.0 15.0 15.0 15.0 15.0 15.0 15.0 15.0 15.0 15.0 15.0 15.0 15.0 15.0 15.0 15.0 15.0 15.0 15.0 15.0 15.0 15.0 15.0 15.0 14.9 4.2 15.0 10.6 15.0 15.0 15.0 15.0 15.0 15.0 4.3 12.1
15.0 15.0 15.0 15.0 15.0 15.0 15.0 15.0 15.0 15.0 15.0 15.0 15.0 15.0 15.0 15.0 15.0 15.0 15.0 15.0 15.0 15.0 15.0 15.0 15.0 15.0 15.0 15.0 15.0 15.0 15.0 13.9 5.4 7.5 10.1 15.0 15.0 15.0 15.0 10.3 7.6 15.0 15.0 15.0
15.0 15.0 9.7 15.0 15.0 15.0 15.0 15.0 15.0 15.0 15.0 15.0 15.0 15.0 15.0 15.0 15.0 15.0 15.0 15.0 15.0 15.0 15.0 15.0 15.0 15.0 15.0 15.0 15.0 15.0 15.0 15.0 12.0 15.0 15.0 6.5 8.5 14.6 3.2 10.1 4.9 6.5 15.0 15.0
0.0 1.2 14.0 15.0 15.0 15.0 15.0 15.0 15.0 15.0 15.0 15.0 15.0 15.0 15.0 15.0 15.0 15.0 15.0 15.0 15.0 15.0 15.0 15.0 15.0 15.0 15.0 15.0 10.3 15.0 15.0 15.0 15.0 5.6 3.8 6.3 11.1 6.5 15.0 13.3 15.0 15.0 15.0 15.0
1.2 0.1 0.1 15.0 15.0 15.0 15.0 15.0 15.0 15.0 15.0 15.0 15.0 15.0 15.0 15.0 15.0 15.0 15.0 15.0 15.0 15.0 15.0 15.0 15.0 15.0 15.0 14.7 15.0 15.0 15.0 6.9 11.2 15.0 15.0 15.0 15.0 15.0 15.0 15.0 15.0 15.0 15.0 15.0
0.2 3.0 14.9 15.0 15.0 15.0 15.0 14.7 15.0 15.0 15.0 15.0 15.0 15.0 15.0 15.0 15.0 15.0 15.0 15.0 15.0 15.0 15.0 15.0 15.0 15.0 15.0 15.0 15.0 15.0 15.0 15.0 15.0 15.0 15.0 15.0 15.0 15.0 15.0 15.0 15.0 15.0 15.0 15.0
0.8 0.1 13.2 5.7 15.0 15.0 15.0 15.0 15.0 15.0 15.0 15.0 15.0 15.0 15.0 15.0 15.0 15.0 15.0 15.0 15.0 15.0 15.0 15.0 15.0 15.0 15.0 15.0 15.0 15.0 15.0 15.0 15.0 15.0 15.0 15.0 15.0 15.0 15.0 15.0 15.0 15.0 15.0 15.0
15.0 15.0 15.0 14.5 12.1 15.0 15.0 15.0 15.0 15.0 15.0 15.0 15.0 15.0 15.0 15.0 15.0 15.0 15.0 15.0 15.0 15.0 15.0 15.0 15.0 15.0 15.0 15.0 15.0 15.0 15.0 15.0 15.0 15.0 15.0 15.0 15.0 15.0 15.0 15.0 15.0 14.2 15.0 15.0
14.4 15.0 15.0 15.0 15.0 15.0 15.0 15.0 15.0 15.0 15.0 15.0 15.0 15.0 15.0 15.0 15.0 14.8 15.0 15.0 15.0 15.0 15.0 15.0 15.0 15.0 15.0 15.0 15.0 15.0 15.0 15.0 15.0 15.0 15.0 15.0 15.0 15.0 15.0 15.0 15.0 15.0 15.0 14.8
15.0 15.0 15.0 15.0 15.0 15.0 15.0 15.0 15.0 15.0 15.0 15.0 15.0 15.0 15.0 15.0 15.0 15.0 15.0 15.0 15.0 15.0 15.0 15.0 15.0 15.0 15.0 15.0 15.0 15.0 15.0 15.0 15.0 15.0 15.0 15.0 15.0 15.0 15.0 15.0 15.0 15.0 15.0 15.0
8.9 8.0 15.0 15.0 15.0 15.0 15.0 15.0 15.0 15.0 15.0 15.0 15.0 15.0 15.0 15.0 15.0 15.0 15.0 15.0 15.0 15.0 15.0 15.0 15.0 15.0 15.0 15.0 15.0 15.0 15.0 15.0 15.0 15.0 15.0 15.0 15.0 15.0 15.0 15.0 15.0 15.0 15.0 15.0
3.3 15.0 14.8 3.9 15.0 15.0 15.0 15.0 15.0 15.0 15.0 15.0 15.0 15.0 15.0 15.0 15.0 15.0 15.0 15.0 15.0 15.0 15.0 15.0 15.0 15.0 15.0 15.0 15.0 15.0 15.0 15.0 15.0 15.0 15.0 15.0 15.0 15.0 15.0 15.0 15.0 15.0 15.0 15.0
15.0 9.0 7.3 15.0 9.8 13.5 15.0 15.0 15.0 15.0 15.0 15.0 15.0 15.0 15.0 15.0 15.0 15.0 15.0 15.0 15.0 15.0 15.0 15.0 15.0 15.0 15.0 15.0 15.0 15.0 15.0 15.0 15.0 15.0 15.0 15.0 15.0 15.0 15.0 11.8 3.6 8.1 4.6 7.0
14.9 15.0 15.0 15.0 15.0 15.0 15.0 15.0 15.0 15.0 15.0 15.0 15.0 15.0 15.0 15.0 15.0 15.0 15.0 15.0 15.0 15.0 15.0 15.0 15.0 15.0 15.0 15.0 15.0 15.0 15.0 15.0 6.8 3.0 2.3 3.0 8.6 4.7 1.0 0.9 0.5 0.1 0.4 11.4
15.0 15.0 15.0 15.0 15.0 15.0 15.0 15.0 15.0 15.0 15.0 15.0 15.0 15.0 15.0 15.0 15.0 15.0 15.0 15.0 15.0 12.7 15.0 14.8 6.0 3.5 3.4 0.9 0.4 0.2 0.1 0.1 0.2 0.4 0.3 0.2 0.2 0.2 0.1 0.1 1.3 4.3 0.6 0.2
0.5 0.1 0.2 0.8 0.2 0.3 2.7 15.0 14.9 14.9 15.0 15.0 15.0 15.0 15.0 15.0 15.0 14.7 7.3 14.8 7.1 0.4 0.1 0.1 0.1 0.1 0.1 0.1 0.2 0.1 0.1 0.1 0.1 0.1 0.1 0.1 0.1 0.1 0.1 0.1 0.1 0.1 0.1 0.1
0.1 0.2 0.1 0.1 3.7 15.0 4.4 6.7 7.6 7.0 2.6 7.3 15.0 15.0 15.0 14.0 3.1 1.4 0.1 0.1 0.1 0.1 0.1 0.1 0.1 0.1 0.1 0.1 0.4 0.2 0.1 0.1 0.1 0.1 0.1 0.1 0.1 0.1 0.1 0.1 0.1 0.1 0.1 0.1
0.9 0.3 0.6 0.9 0.2 0.6 0.6 0.6 0.4 0.6 0.4 0.1 0.3 0.1 0.1 0.1 0.1 0.1 0.1 0.1 0.1 0.2 0.1 0.1 0.1 0.1 0.2 0.2 0.4 0.2 0.1 0.1 0.1 0.1 0.1 0.1 0.1 0.1 0.1 0.1 0.1 0.1 0.1 0.1
0.2 0.2 0.3 0.1 0.1 0.1 0.1 0.1 0.1 0.1 0.1 0.1 0.1 0.1 0.1 0.1 0.1 0.1 0.2 0.1 0.1 0.1 0.1 0.1 0.2 0.2 0.2 0.2 0.2 0.1 0.1 0.1 0.1 0.1 0.1 0.1 0.1 0.1 0.1 0.1 0.2 0.3 0.4 0.4
0.1 0.1 0.1 0.1 0.1 0.1 0.1 0.1 0.1 0.1 0.1 0.1 0.1 0.1 0.1 0.1 0.1 0.1 0.3 0.4 0.1 0.1 0.2 0.2 0.3 0.2 0.2 0.2 0.3 0.2 0.3 0.4 0.4 0.4 0.7 1.6 4.0 4.5 3.5 2.6 2.5 2.4 1.9 4.4
0.2 0.2 0.1 0.2 0.2 0.1 0.1 0.1 0.3 0.3 0.3 0.2 0.2 0.2 0.7 0.2 0.2 0.2 0.2 0.2 0.1 0.3 1.3 5.0 0.4 0.3 0.8 13.6 15.0 15.0 15.0 15.0 6.5 9.7 14.5 11.4 4.7 3.2 2.7 2.0 0.7 0.8 1.0 0.9
0.1 0.1 0.2 0.2 0.2 0.1 0.2 0.2 0.3 1.5 0.7 1.0 1.2 2.3 1.3 0.7 1.9 5.6 0.4 0.2 10.0 15.0 15.0 15.0 14.1 15.0 15.0 15.0 15.0 15.0 4.5 7.2 4.3 4.0 3.9 2.8 1.6 2.2 3.0 3.0 2.1 0.7 0.3 0.4
0.1 0.2 0.9 13.5 14.0 15.0 0.9 1.7 12.2 1.9 2.3 4.5 1.2 10.3 15.0 7.3 0.4 0.7 14.9 15.0 15.0 15.0 15.0 15.0 15.0 15.0 15.0 15.0 15.0 4.2 4.1 3.8 1.6 1.5 1.9 2.7 3.5 4.1 3.7 2.0 1.4 1.6 2.3 0.9
15.0 15.0 15.0 15.0 6.0 0.8 4.3 4.9 10.7 13.0 8.4 1.6 1.1 0.9 1.0 3.0 1.6 0.4 0.7 0.5 2.3 3.1 1.1 3.0 5.4 12.8 4.7 4.1 5.2 5.3 3.2 2.8 3.5 4.0 3.9 4.1 3.8 3.2 1.8 1.3 1.7 1.5 1.7 2.3
11.9 10.6 14.8 15.0 9.0 8.0 7.1 13.6 0.8 0.8 13.4 1.9 0.6 0.9 1.1 1.7 4.0 4.4 8.7 10.4 12.3 4.5 2.5 4.3 9.4 13.9 14.0 3.5 2.0 3.9 3.9 1.8 1.1 1.5 2.2 4.0 3.3 1.8 2.7 4.0 4.1 4.1 4.1 4.1
13.8 15.0 15.0 7.9 15.0 15.0 15.0 10.9 7.0 1.2 3.9 5.9 3.5 3.0 3.2 1.4 2.5 13.8 6.1 14.8 4.4 4.1 4.2 4.2 9.3 8.5 13.1 5.5 13.0 3.2 4.0 4.1 10.4 15.0 7.0 3.2 1.1 1.3 2.7 3.8 4.1 3.9 4.1 2.8

GFSNGP_sfc_vis_051.txt.gz
Visibility
15.0 15.0 15.0 15.0 15.0 15.0 15.0 15.0 15.0 15.0 15.0 15.0 15.0 15.0 15.0 15.0 15.0 15.0 15.0 15.0 15.0 15.0 15.0 15.0 15.0 15.0 15.0 15.0 15.0 15.0 15.0 15.0 15.0 14.2 15.0 9.5 6.6 7.4 15.0 15.0 15.0 15.0 9.0 15.0
15.0 15.0 15.0 15.0 15.0 15.0 15.0 15.0 15.0 15.0 15.0 15.0 15.0 15.0 15.0 15.0 15.0 15.0 15.0 15.0 15.0 15.0 15.0 15.0 15.0 15.0 15.0 15.0 15.0 15.0 15.0 15.0 15.0 15.0 15.0 15.0 15.0 15.0 12.1 7.8 15.0 2.8 3.3 4.5
15.0 15.0 15.0 15.0 15.0 15.0 15.0 15.0 15.0 15.0 15.0 15.0 15.0 15.0 15.0 15.0 15.0 15.0 15.0 15.0 15.0 15.0 15.0 15.0 15.0 15.0 15.0 15.0 15.0 15.0 15.0 15.0 15.0 15.0 15.0 15.0 5.9 0.1 0.1 0.1 1.6 13.3 15.0 5.6
0.9 14.9 0.3 15.0 15.0 15.0 15.0 15.0 15.0 15.0 15.0 15.0 15.0 15.0 15.0 15.0 15.0 15.0 15.0 15.0 15.0 15.0 15.0 15.0 15.0 15.0 15.0 15.0 15.0 15.0 15.0 15.0 13.8 15.0 10.8 0.1 0.1 0.1 1.0 15.0 15.0 15.0 15.0 15.0
14.9 15.0 15.0 15.0 15.0 15.0 15.0 15.0 15.0 15.0 15.0 15.0 15.0 15.0 15.0 15.0 15.0 15.0 15.0 15.0 15.0 15.0 15.0 15.0 15.0 15.0 15.0 15.0 15.0 15.0 0.5 0.2 0.2 0.3 0.1 0.2 0.3 0.9 12.6 11.6 15.0 15.0 15.0 6.3
0.2 15.0 15.0 8.6 15.0 15.0 15.0 15.0 15.0 15.0 15.0 15.0 15.0 15.0 15.0 15.0 15.0 15.0 15.0 15.0 15.0 15.0 15.0 15.0 15.0 15.0 15.0 0.1 0.4 0.2 15.0 15.0 15.0 15.0 15.0 15.0 15.0 15.0 15.0 15.0 14.4 15.0 15.0 15.0
0.9 13.3 15.0 15.0 15.0 15.0 15.0 14.7 15.0 15.0 15.0 15.0 15.0 15.0 15.0 15.0 15.0 15.0 15.0 15.0 15.0 15.0 15.0 15.0 15.0 15.0 15.0 15.0 3.9 15.0 8.6 12.4 15.0 15.0 15.0 15.0 15.0 12.9 15.0 13.8 15.0 15.0 12.8 15.0
5.8 5.6 11.0 15.0 15.0 13.0 15.0 15.0 15.0 15.0 15.0 15.0 15.0 15.0 15.0 15.0 15.0 15.0 15.0 15.0 15.0 15.0 15.0 15.0 15.0 15.0 15.0 15.0 15.0 15.0 15.0 15.0 15.0 15.0 15.0 15.0 14.9 11.1 14.1 15.0 0.9 1.6 15.0 15.0
13.5 14.8 15.0 15.0 15.0 15.0 15.0 15.0 15.0 15.0 15.0 15.0 15.0 15.0 15.0 15.0 15.0 15.0 15.0 15.0 15.0 15.0 15.0 15.0 15.0 15.0 15.0 14.3 15.0 15.0 15.0 15.0 15.0 15.0 15.0 15.0 15.0 15.0 15.0 9.8 0.5 3.8 15.0 15.0
15.0 15.0 15.0 15.0 15.0 15.0 15.0 15.0 15.0 15.0 15.0 15.0 15.0 11.6 15.0 15.0 15.0 15.0 15.0 15.0 15.0 15.0 15.0 15.0 15.0 15.0 15.0 15.0 15.0 15.0 15.0 15.0 15.0 15.0 15.0 15.0 15.0 15.0 15.0 15.0 15.0 15.0 15.0 15.0
15.0 15.0 15.0 15.0 15.0 15.0 15.0 15.0 15.0 15.0 15.0 15.0 15.0 14.7 15.0 9.3 12.1 15.0 13.8 14.5 15.0 15.0 15.0 15.0 15.0 15.0 15.0 15.0 15.0 15.0 15.0 15.0 15.0 15.0 15.0 15.0 15.0 15.0 15.0 15.0 15.0 15.0 15.0 15.0
15.0 15.0 10.5 0.9 6.8 15.0 15.0 15.0 15.0 15.0 15.0 15.0 15.0 15.0 15.0 15.0 14.0 11.4 15.0 15.0 15.0 15.0 15.0 15.0 15.0 15.0 15.0 15.0 15.0 15.0 15.0 15.0 15.0 15.0 15.0 15.0 15.0 15.0 15.0 15.0 15.0 15.0 15.0 15.0
14.8 15.0 15.0 15.0 15.0 15.0 15.0 15.0 15.0 15.0 14.9 15.0 15.0 15.0 15.0 15.0 15.0 15.0 15.0 15.0 15.0 15.0 15.0 15.0 15.0 15.0 15.0 15.0 15.0 15.0 15.0 15.0 15.0 15.0 15.0 15.0 15.0 15.0 15.0 15.0 15.0 15.0 15.0 15.0
15.0 15.0 11.5 15.0 14.5 15.0 15.0 15.0 13.4 14.4 15.0 15.0 15.0 15.0 15.0 15.0 15.0 15.0 15.0 15.0 15.0 15.0 15.0 15.0 15.0 15.0 15.0 15.0 15.0 15.0 15.0 15.0 15.0 15.0 15.0 15.0 15.0 15.0 8.9 4.3 1.7 1.3 2.0 4.8
15.0 15.0 10.0 15.0 15.0 15.0 15.0 15.0 15.0 15.0 15.0 15.0 15.0 15.0 15.0 15.0 15.0 15.0 15.0 15.0 15.0 15.0 15.0 15.0 15.0 9.2 15.0 14.1 4.4 2.4 8.6 6.1 1.9 1.6 1.9 0.6 0.4 0.3 0.2 0.2 0.1 0.1 0.1 0.1
15.0 15.0 12.2 2.2 8.7 14.4 15.0 15.0 15.0 13.8 15.0 15.0 15.0 15.0 15.0 15.0 15.0 15.0 15.0 15.0 9.6 1.1 1.3 1.4 0.6 0.1 0.1 0.3 0.2 0.1 0.1 0.1 0.1 0.1 0.1 0.1 0.1 0.1 0.1 0.1 0.1 0.1 0.1 0.1
2.7 0.2 0.1 10.4 14.1 8.7 6.0 13.9 14.9 8.4 14.6 14.7 15.0 15.0 15.0 15.0 15.0 6.9 0.3 0.4 0.1 0.1 0.1 0.1 0.1 0.1 0.1 0.1 0.1 0.1 0.1 0.1 0.1 0.2 0.1 0.1 0.1 0.1 0.1 0.1 0.1 0.1 0.1 0.1
0.1 0.5 0.9 0.2 0.6 1.2 0.6 0.2 2.1 0.9 0.2 0.3 6.8 15.0 10.9 10.2 0.2 0.1 0.1 0.1 0.1 0.1 0.1 0.1 0.1 0.1 0.1 0.1 0.1 0.1 0.1 0.1 0.1 0.1 0.1 0.1 0.1 0.2 0.2 0.2 0.2 0.2 0.2 0.2
1.2 0.9 0.4 0.2 0.1 0.4 0.6 0.2 0.1 0.2 0.1 0.1 0.4 0.1 0.1 0.1 0.1 0.1 0.1 0.1 0.1 0.2 0.1 0.1 0.1 0.1 0.1 0.1 0.1 0.2 0.1 0.1 0.1 0.1 0.2 0.3 0.3 0.3 0.3 0.2 0.1 0.1 0.1 0.1
0.1 0.1 0.2 0.2 0.3 0.5 0.2 0.1 0.3 0.2 0.1 0.1 0.1 0.1 0.1 0.1 0.1 0.1 0.1 0.1 0.1 0.1 0.1 0.1 0.1 0.2 0.2 0.3 0.7 1.0 0.9 0.7 0.7 0.7 0.8 0.4 0.2 0.2 0.1 0.2 0.4 0.7 1.8 3.3
0.1 0.1 0.1 0.2 0.1 0.1 0.1 0.1 0.8 0.2 0.1 0.2 0.3 0.1 0.1 0.1 0.1 0.1 0.2 0.2 0.1 0.1 0.1 0.2 0.2 0.2 0.3 2.0 12.0 5.0 7.1 4.4 5.3 5.6 5.8 4.3 5.1 4.2 3.8 1.9 1.3 1.4 2.7 4.0
0.1 0.1 0.1 0.1 0.8 0.3 0.2 0.2 0.5 0.4 0.3 0.2 0.2 0.2 0.9 0.2 0.4 0.5 0.3 0.4 0.5 1.7 2.1 3.7 12.9 15.0 15.0 15.0 15.0 14.9 15.0 15.0 12.2 12.2 4.2 4.0 4.1 4.1 4.1 4.1 4.0 3.8 2.7 1.2
0.1 0.1 0.1 0.6 1.1 0.3 1.6 2.6 2.7 5.2 2.2 2.5 2.3 2.1 0.9 0.7 15.0 13.0 1.8 15.0 15.0 15.0 15.0 15.0 15.0 15.0 15.0 15.0 13.5 9.2 7.7 7.2 4.0 3.3 3.9 4.1 4.1 4.1 3.7 2.7 2.4 2.4 2.1 1.5
0.1 0.2 2.4 13.2 15.0 15.0 0.9 0.9 3.6 2.1 1.6 2.3 1.8 7.9 14.6 2.6 0.5 2.7 2.3 4.6 4.3 6.3 8.3 6.5 6.2 4.1 15.0 13.7 6.3 4.0 3.9 3.4 3.1 3.2 3.9 4.1 3.5 3.3 2.4 2.3 2.1 1.6 2.1 2.9
15.0 15.0 15.0 15.0 8.9 0.6 3.3 14.0 10.7 13.0 11.0 2.5 1.4 1.5 2.7 6.0 3.9 0.3 1.9 2.5 4.6 4.9 10.1 4.7 4.1 4.1 4.2 4.1 3.9 2.1 1.3 1.3 1.2 3.4 3.7 3.4 2.6 1.9 1.5 2.2 4.1 4.1 4.1 4.1
15.0 15.0 13.3 8.7 2.5 3.7 5.5 10.6 1.5 3.7 11.1 2.1 0.8 0.6 0.8 1.9 6.8 6.4 4.4 4.6 15.0 8.8 12.3 5.7 5.7 11.8 12.8 7.0 3.3 2.6 3.3 4.2 4.3 5.9 5.1 3.1 1.3 1.9 2.6 3.5 4.2 4.0 3.8 2.7
13.0 15.0 15.0 10.3 9.9 15.0 15.0 15.0 13.7 3.8 4.6 3.9 0.9 0.4 1.0 4.0 5.4 6.4 4.1 5.9 8.0 5.3 4.1 4.0 4.1 13.3 15.0 3.9 1.7 1.4 2.9 4.1 3.6 4.2 2.5 1.7 1.1 0.9 1.6 2.7 3.9 3.8 3.9 3.2

GFSNGP_sfc_vis_054.txt.gz
Visibility
15.0 15.0 15.0 15.0 15.0 15.0 15.0 15.0 15.0 15.0 15.0 15.0 15.0 15.0 15.0 15.0 15.0 15.0 15.0 15.0 15.0 15.0 15.0 15.0 15.0 15.0 15.0 15.0 15.0 15.0 15.0 15.0 15.0 15.0 15.0 15.0 15.0 9.1 7.2 15.0 15.0 13.6 12.2 7.5
15.0 15.0 15.0 15.0 15.0 15.0 15.0 15.0 15.0 15.0 15.0 15.0 15.0 15.0 15.0 15.0 15.0 15.0 15.0 15.0 15.0 15.0 15.0 15.0 15.0 15.0 15.0 15.0 15.0 15.0 15.0 15.0 15.0 15.0 15.0 15.0 15.0 15.0 13.4 8.6 5.1 8.5 5.7 1.0
15.0 15.0 15.0 15.0 15.0 15.0 15.0 15.0 15.0 15.0 15.0 15.0 15.0 15.0 15.0 15.0 15.0 15.0 15.0 15.0 15.0 15.0 15.0 15.0 15.0 15.0 15.0 15.0 15.0 15.0 15.0 15.0 15.0 15.0 15.0 15.0 15.0 15.0 15.0 15.0 10.6 0.1 0.1 0.9
15.0 12.2 15.0 15.0 15.0 15.0 15.0 15.0 15.0 15.0 15.0 15.0 15.0 15.0 15.0 15.0 15.0 15.0 15.0 15.0 15.0 15.0 15.0 15.0 15.0 15.0 15.0 15.0 15.0 15.0 15.0 15.0 15.0 15.0 15.0 15.0 15.0 15.0 12.1 0.3 0.1 0.1 0.1 1.3
15.0 15.0 15.0 15.0 15.0 15.0 15.0 15.0 15.0 15.0 15.0 15.0 15.0 15.0 15.0 15.0 15.0 15.0 15.0 15.0 15.0 15.0 15.0 15.0 15.0 15.0 15.0 15.0 15.0 15.0 15.0 15.0 15.0 15.0 5.8 0.2 0.1 0.1 0.1 0.1 0.1 0.4 14.5 8.7
0.2 13.9 15.0 15.0 15.0 15.0 15.0 15.0 15.0 15.0 15.0 15.0 15.0 15.0 15.0 15.0 15.0 15.0 15.0 15.0 15.0 15.0 15.0 15.0 15.0 15.0 15.0 13.9 15.0 14.1 2.3 0.2 0.3 0.7 0.1 0.1 0.1 0.1 2.4 14.3 1.2 9.0 0.2 10.7
0.8 0.1 13.8 15.0 15.0 15.0 13.8 15.0 15.0 15.0 15.0 15.0 15.0 15.0 15.0 15.0 15.0 15.0 15.0 15.0 15.0 15.0 15.0 15.0 15.0 15.0 2.1 15.0 0.2 5.0 15.0 15.0 15.0 15.0 15.0 12.1 8.5 15.0 15.0 15.0 15.0 1.9 0.3 1.4
10.0 0.5 6.6 15.0 15.0 15.0 15.0 15.0 15.0 15.0 15.0 15.0 15.0 15.0 15.0 15.0 15.0 15.0 15.0 15.0 15.0 15.0 15.0 15.0 15.0 15.0 0.1 0.6 13.4 15.0 15.0 3.8 9.5 11.3 15.0 15.0 15.0 15.0 15.0 15.0 15.0 4.0 15.0 9.1
15.0 15.0 15.0 15.0 15.0 15.0 15.0 15.0 15.0 15.0 15.0 15.0 15.0 15.0 15.0 15.0 15.0 15.0 15.0 15.0 15.0 15.0 15.0 15.0 15.0 15.0 15.0 14.2 15.0 13.0 15.0 15.0 15.0 15.0 15.0 15.0 15.0 15.0 15.0 9.0 10.6 12.6 4.0 4.3
15.0 15.0 15.0 15.0 15.0 15.0 15.0 15.0 15.0 15.0 15.0 15.0 15.0 15.0 15.0 15.0 15.0 15.0 15.0 15.0 15.0 15.0 15.0 15.0 15.0 15.0 15.0 15.0 15.0 15.0 15.0 15.0 15.0 15.0 15.0 15.0 15.0 11.6 7.1 11.1 15.0 15.0 15.0 15.0
15.0 15.0 15.0 15.0 15.0 15.0 15.0 15.0 15.0 15.0 15.0 15.0 15.0 15.0 15.0 15.0 15.0 15.0 15.0 14.6 15.0 15.0 15.0 15.0 15.0 15.0 15.0 12.4 15.0 14.3 15.0 15.0 15.0 15.0 15.0 15.0 14.8 15.0 15.0 15.0 15.0 15.0 15.0 15.0
15.0 15.0 10.8 15.0 15.0 15.0 15.0 11.8 15.0 15.0 15.0 15.0 15.0 15.0 15.0 15.0 15.0 15.0 15.0 15.0 15.0 15.0 15.0 15.0 15.0 15.0 15.0 15.0 15.0 15.0 15.0 15.0 15.0 15.0 15.0 15.0 15.0 15.0 15.0 15.0 15.0 15.0 15.0 15.0
15.0 15.0 15.0 15.0 15.0 15.0 15.0 15.0 14.9 5.8 9.4 14.8 15.0 15.0 15.0 15.0 15.0 15.0 15.0 15.0 15.0 15.0 15.0 13.2 15.0 15.0 15.0 15.0 15.0 15.0 15.0 15.0 15.0 15.0 15.0 15.0 15.0 3.6 0.9 0.1 0.1 0.1 0.1 0.1
15.0 15.0 11.6 15.0 15.0 15.0 15.0 15.0 15.0 15.0 15.0 15.0 15.0 15.0 15.0 15.0 15.0 15.0 13.1 15.0 15.0 6.2 13.2 15.0 8.9 2.4 1.3 8.2 15.0 15.0 7.1 0.8 0.3 0.1 0.2 0.3 0.1 0.1 0.1 0.1 0.3 0.1 0.1 0.3
15.0 15.0 15.0 15.0 15.0 15.0 15.0 15.0 8.1 10.0 15.0 15.0 15.0 15.0 15.0 15.0 5.5 1.4 14.7 15.0 15.0 15.0 5.0 11.7 6.4 0.3 0.1 0.3 0.2 0.1 0.1 0.1 0.1 0.1 0.1 0.1 0.1 0.1 0.1 0.1 0.1 0.1 0.1 0.1
15.0 15.0 15.0 15.0 13.3 15.0 6.2 0.1 0.6 0.3 11.1 15.0 15.0 9.3 4.3 11.1 5.1 1.8 3.4 15.0 11.0 0.3 0.1 0.1 0.3 0.1 0.1 0.1 0.1 0.1 0.1 0.1 0.1 0.1 0.1 0.1 0.1 0.1 0.1 0.1 0.1 0.1 0.1 0.1
14.6 3.5 1.2 14.5 9.4 7.4 2.1 0.1 0.1 0.2 0.4 5.2 1.2 11.0 14.9 15.0 15.0 1.6 0.2 0.1 0.1 0.1 0.1 0.1 0.1 0.1 0.1 0.1 0.1 0.1 0.1 0.1 0.1 0.1 0.1 0.1 0.1 0.1 0.1 0.1 0.1 0.1 0.1 0.1
0.6 0.8 0.2 0.1 0.1 1.0 0.4 0.1 0.5 0.2 0.4 0.6 0.9 1.2 0.5 0.9 0.5 0.5 0.2 0.3 0.7 0.3 0.1 0.1 0.1 0.1 0.1 0.1 0.2 0.2 0.2 0.2 0.2 0.1 0.2 0.2 0.2 0.5 0.6 0.8 0.7 0.4 0.2 0.1
1.2 0.7 0.3 0.3 0.1 0.1 0.2 0.2 0.1 0.2 0.1 0.1 1.0 0.2 0.1 0.1 0.1 0.1 0.1 0.2 0.2 0.4 0.1 0.1 0.4 0.8 0.3 0.2 0.3 0.5 0.6 0.7 0.8 0.5 0.7 1.5 1.9 2.4 2.4 2.2 0.8 0.4 0.3 0.6
0.1 0.1 0.1 0.1 0.1 0.1 0.1 0.1 0.1 0.2 0.1 0.5 0.9 0.9 0.6 0.1 0.1 0.1 0.5 0.2 0.1 0.1 0.2 0.2 0.7 0.5 0.6 0.8 1.7 0.8 0.6 0.5 0.7 1.0 4.2 5.2 5.0 3.5 3.6 4.1 3.4 3.9 4.0 3.9
0.1 0.1 0.1 0.1 0.1 0.1 0.1 0.1 0.1 0.1 0.1 0.1 0.2 0.1 0.1 0.1 0.2 0.6 13.0 1.2 0.1 1.1 5.8 15.0 15.0 15.0 15.0 15.0 15.0 15.0 15.0 15.0 11.7 8.8 8.9 7.3 10.0 5.9 4.7 4.4 3.6 2.4 2.5 1.5
0.1 0.1 0.1 0.1 0.1 0.1 0.1 0.1 0.1 0.1 0.1 0.2 0.3 2.0 7.4 9.1 14.8 3.3 1.1 1.0 10.8 15.0 15.0 15.0 15.0 13.3 12.1 15.0 15.0 15.0 15.0 15.0 10.2 15.0 15.0 15.0 11.1 4.2 3.5 3.3 2.5 2.1 1.4 1.0
0.1 0.1 0.1 0.1 0.2 0.3 3.4 3.6 4.2 6.0 2.3 2.4 3.0 3.1 1.5 2.2 15.0 12.0 1.5 8.3 15.0 15.0 15.0 7.6 8.6 13.7 15.0 15.0 15.0 15.0 13.6 8.8 4.0 3.3 3.4 3.6 3.4 3.0 3.0 2.1 1.7 2.1 2.7 3.5
0.1 0.1 0.2 1.7 15.0 15.0 2.1 1.5 4.9 2.1 1.9 2.6 1.2 3.6 14.9 2.9 0.5 0.7 1.8 5.0 9.4 13.5 4.2 4.2 4.2 4.1 15.0 4.8 3.8 2.9 2.1 2.1 2.6 3.4 4.0 3.0 2.2 1.9 2.1 2.5 4.0 4.1 4.1 4.1
0.8 11.2 15.0 15.0 6.3 1.5 6.5 14.6 14.8 13.8 11.5 3.1 1.9 1.8 3.1 6.6 2.8 0.5 4.1 9.1 12.8 11.7 6.1 4.5 4.1 4.1 4.1 3.4 2.2 1.7 2.0 3.5 3.9 4.1 3.9 2.7 1.8 2.0 1.9 1.9 3.3 3.7 4.1 3.9
15.0 7.3 3.2 4.2 2.7 4.7 9.3 15.0 4.3 4.4 6.9 1.8 0.7 0.6 1.1 2.7 7.5 12.4 15.0 14.9 15.0 8.7 5.5 4.4 6.9 7.1 4.1 2.7 2.6 3.2 4.0 10.1 4.3 4.0 3.2 2.0 1.6 1.5 2.0 3.7 3.9 3.9 3.4 2.9
15.0 15.0 15.0 15.0 15.0 15.0 15.0 15.0 13.7 3.2 3.8 7.1 0.9 0.5 2.6 5.4 6.1 13.3 5.1 5.9 4.1 3.8 3.9 4.1 4.1 4.7 3.2 1.4 2.8 3.0 2.8 2.8 2.9 2.1 1.4 1.8 2.9 3.6 4.1 4.1 4.1 4.1 4.0 3.9